SR9NLI Weather Reports


Display with metric or nautical units.
time (UTC)temp
F
wind
direction
speed
MPH
gust
MPH
rain 1hr
in
rain 24hr
in
rain mn
in
humidity
%
barometer
mb
20260905095935 61 269 8.0 18.0 0.00 0.00 0.00 100 959.4
20260905095834 61 264 10.0 20.0 0.00 0.00 0.00 100 959.2
20260905095731 61 260 10.0 20.0 0.00 0.00 0.00 100 959.3
20260905095528 61 249 7.0 22.0 0.00 0.00 0.00 100 959.3
20260905095325 61 236 5.0 22.0 0.00 0.00 0.00 100 959.3
20260905095224 61 235 5.0 22.0 0.00 0.00 0.00 100 959.2
20260905095122 62 222 5.0 26.0 0.00 0.00 0.00 100 959.2
20260905094918 62 243 5.0 29.0 0.00 0.00 0.00 100 959.3
20260905094715 62 246 5.0 29.0 0.00 0.00 0.00 100 959.1
20260905094512 63 235 2.0 10.0 0.00 0.00 0.00 100 959.2
20260905094308 62 235 3.0 16.0 0.00 0.00 0.00 100 959.5
20260905094105 62 238 4.0 16.0 0.00 0.00 0.00 100 959.4
20260905094004 62 239 3.0 16.0 0.00 0.00 0.00 100 959.4
20260905093901 62 233 2.0 10.0 0.00 0.00 0.00 100 959.5
20260905093658 62 241 3.0 13.0 0.00 0.00 0.00 100 959.5
20260905093455 61 260 5.0 12.0 0.00 0.00 0.00 100 959.4
20260905093354 61 263 5.0 12.0 0.00 0.00 0.00 100 959.3
20260905093252 61 267 5.0 12.0 0.00 0.00 0.00 100 959.3
20260905093049 62 232 4.0 14.0 0.00 0.00 0.00 100 959.3
20260905092845 64 223 2.0 14.0 0.00 0.00 0.00 100 959.1
20260905092744 64 238 1.0 8.0 0.00 0.00 0.00 100 959.4
20260905092642 64 237 1.0 6.0 0.00 0.00 0.00 100 959.3
20260905092439 64 221 1.0 5.0 0.00 0.00 0.00 100 959.3
20260905092236 64 218 1.0 5.0 0.00 0.00 0.00 100 959.3
20260905092135 64 241 2.0 4.0 0.00 0.00 0.00 100 959.3
20260905092032 64 245 2.0 5.0 0.00 0.00 0.00 100 959.4
20260905091829 63 244 2.0 7.0 0.00 0.00 0.00 100 959.4
20260905091626 64 188 2.0 7.0 0.00 0.00 0.00 100 959.4
20260905091525 63 179 2.0 7.0 0.00 0.00 0.00 100 959.4
20260905091423 62 184 2.0 7.0 0.00 0.00 0.00 100 959.4
20260905091219 62 235 1.0 4.0 0.00 0.00 0.00 100 959.5
20260905091017 61 222 1.0 4.0 0.00 0.00 0.00 100 959.5
20260905090916 61 233 1.0 4.0 0.00 0.00 0.00 100 959.5
20260905090813 61 220 1.0 4.0 0.00 0.00 0.00 100 959.4
20260905090610 60 175 2.0 6.0 0.00 0.00 0.00 100 959.3
20260905090407 60 145 3.0 6.0 0.00 0.00 0.00 100 959.3
20260905090306 60 140 2.0 6.0 0.00 0.00 0.00 100 959.3
20260905090204 60 143 2.0 5.0 0.00 0.00 0.00 100 959.3
20260905090001 60 0 1.0 3.0 0.00 0.00 0.00 100 959.4
20260905085757 60 0 1.0 3.0 0.00 0.00 0.00 100 959.6
20260905085657 60 0 1.0 4.0 0.00 0.00 0.00 100 959.6
20260905085554 60 0 1.0 4.0 0.00 0.00 0.00 100 959.8
20260905085351 60 0 2.0 7.0 0.00 0.00 0.00 100 959.6
20260905085147 60 178 3.0 10.0 0.00 0.00 0.00 100 959.6
20260905085047 60 179 2.0 10.0 0.00 0.00 0.00 100 959.5
20260905084945 60 185 2.0 10.0 0.00 0.00 0.00 100 959.6
20260905084742 60 0 1.0 5.0 0.00 0.00 0.00 100 959.4
20260905084539 60 219 1.0 4.0 0.00 0.00 0.00 100 959.5
20260905084438 60 0 0.0 4.0 0.00 0.00 0.00 100 959.4
20260905084336 60 0 1.0 3.0 0.00 0.00 0.00 100 959.4
20260905084133 59 0 1.0 5.0 0.00 0.00 0.00 100 959.5
20260905083930 59 178 2.0 6.0 0.00 0.00 0.00 100 959.5
20260905083829 59 186 2.0 6.0 0.00 0.00 0.00 100 959.5
20260905083726 59 185 1.0 6.0 0.00 0.00 0.00 100 959.5
20260905083522 59 0 1.0 3.0 0.00 0.00 0.00 100 959.3
20260905083319 59 0 1.0 4.0 0.00 0.00 0.00 100 959.5
20260905083219 59 0 1.0 4.0 0.00 0.00 0.00 100 959.4
20260905083116 59 0 1.0 4.0 0.00 0.00 0.00 100 959.4
20260905082913 59 0 1.0 6.0 0.00 0.00 0.00 100 959.6
20260905082710 59 220 2.0 11.0 0.00 0.00 0.00 100 959.5
20260905082609 59 226 2.0 11.0 0.00 0.00 0.00 100 959.4
20260905082506 59 237 2.0 11.0 0.00 0.00 0.00 100 959.4
20260905082307 59 233 2.0 9.0 0.00 0.00 0.00 100 959.4
20260905082100 58 225 2.0 9.0 0.00 0.00 0.00 100 959.4
20260905081959 58 231 2.0 9.0 0.00 0.00 0.00 100 959.4
20260905081857 58 231 2.0 9.0 0.00 0.00 0.00 100 959.5
20260905081654 58 243 2.0 8.0 0.00 0.00 0.00 100 959.2
20260905081451 58 236 2.0 12.0 0.00 0.00 0.00 100 959.0
20260905081350 58 238 3.0 12.0 0.00 0.00 0.00 100 958.9
20260905081247 58 230 3.0 12.0 0.00 0.00 0.00 100 958.9
20260905081044 58 237 4.0 12.0 0.00 0.00 0.00 100 959.0
20260905080841 58 257 5.0 14.0 0.00 0.00 0.00 100 959.1
20260905080740 58 258 6.0 15.0 0.00 0.00 0.00 100 959.3
20260905080638 58 260 7.0 15.0 0.00 0.00 0.00 100 959.1
20260905080435 58 261 6.0 15.0 0.00 0.00 0.00 100 959.3
20260905080232 58 259 5.0 13.0 0.00 0.00 0.00 100 959.3
20260905080132 58 260 5.0 13.0 0.00 0.00 0.00 100 959.2
20260905080030 58 249 4.0 13.0 0.00 0.00 0.00 100 959.1
20260905075827 58 248 4.0 12.0 0.00 0.00 0.00 100 959.1
20260905075623 58 261 4.0 12.0 0.00 0.00 0.00 100 959.2
20260905075522 58 261 4.0 12.0 0.00 0.00 0.00 100 959.5
20260905075420 58 258 3.0 10.0 0.00 0.00 0.00 100 959.7
20260905075217 58 213 3.0 10.0 0.00 0.00 0.00 100 959.3
20260905075014 58 162 2.0 5.0 0.00 0.00 0.00 100 959.3
20260905074914 58 144 2.0 5.0 0.00 0.00 0.00 100 959.3
20260905074812 58 146 2.0 7.0 0.00 0.00 0.00 100 959.3
20260905074608 58 174 2.0 8.0 0.00 0.00 0.00 100 959.3
20260905074355 58 219 2.0 8.0 0.00 0.00 0.00 100 959.0
20260905074254 57 220 2.0 8.0 0.00 0.00 0.00 100 959.0
20260905074152 57 0 1.0 6.0 0.00 0.00 0.00 100 959.0
20260905073949 57 0 1.0 5.0 0.00 0.00 0.00 100 959.0
20260905073747 57 219 2.0 8.0 0.00 0.00 0.00 100 959.0
20260905073646 58 222 2.0 8.0 0.00 0.00 0.00 100 959.0
20260905073543 58 226 2.0 8.0 0.00 0.00 0.00 100 959.0
20260905073341 58 223 1.0 6.0 0.00 0.00 0.00 100 959.1
20260905073137 58 0 1.0 5.0 0.00 0.00 0.00 100 959.0
20260905073037 58 228 1.0 5.0 0.00 0.00 0.00 100 959.1
20260905072933 58 241 2.0 11.0 0.00 0.00 0.00 100 959.1
20260905072730 58 247 4.0 11.0 0.00 0.00 0.00 100 959.2
20260905072526 58 242 4.0 15.0 0.00 0.00 0.00 100 959.1
20260905072426 58 236 4.0 15.0 0.00 0.00 0.00 100 959.2
20260905072323 58 227 2.0 15.0 0.00 0.00 0.00 100 959.0
20260905072121 58 242 3.0 12.0 0.00 0.00 0.00 100 959.1
20260905071917 58 274 5.0 18.0 0.00 0.00 0.00 100 959.0
20260905071816 58 282 6.0 18.0 0.00 0.00 0.00 100 959.1
20260905071714 58 279 9.0 22.0 0.00 0.00 0.00 100 958.9
20260905071511 59 277 10.0 22.0 0.00 0.00 0.00 100 959.3
20260905071308 58 278 12.0 24.0 0.00 0.00 0.00 100 959.5
20260905071207 59 277 10.0 24.0 0.00 0.00 0.00 100 959.4
20260905071105 59 283 11.0 24.0 0.00 0.00 0.00 100 959.4
20260905070902 58 285 12.0 25.0 0.00 0.00 0.00 100 959.4
20260905070659 58 282 12.0 25.0 0.00 0.00 0.00 100 959.2
20260905070456 58 276 10.0 18.0 0.00 0.00 0.00 100 958.9
20260905070253 58 277 9.0 18.0 0.00 0.00 0.00 100 958.8
20260905070050 58 265 7.0 17.0 0.00 0.00 0.00 100 958.7
20260905065950 58 259 7.0 17.0 0.00 0.00 0.00 100 958.6
20260905065848 58 259 6.0 17.0 0.00 0.00 0.00 100 958.6
20260905065644 57 269 6.0 12.0 0.00 0.00 0.00 100 958.6
20260905065441 57 278 6.0 12.0 0.00 0.00 0.00 100 958.6
20260905065341 57 279 6.0 12.0 0.00 0.00 0.00 100 958.6
20260905065238 57 282 5.0 10.0 0.00 0.00 0.00 100 958.5
20260905065035 57 279 4.0 14.0 0.00 0.00 0.00 100 958.6
20260905064832 58 267 5.0 14.0 0.00 0.00 0.00 100 958.5
20260905064731 58 265 6.0 14.0 0.00 0.00 0.00 100 958.5
20260905064629 58 266 6.0 14.0 0.00 0.00 0.00 100 958.5
20260905064426 58 266 6.0 14.0 0.00 0.00 0.00 100 958.5
20260905064223 57 260 6.0 17.0 0.00 0.00 0.00 100 958.6
20260905064122 57 252 6.0 17.0 0.00 0.00 0.00 100 958.5
20260905064020 57 252 6.0 17.0 0.00 0.00 0.00 100 958.4
20260905063817 57 238 3.0 12.0 0.00 0.00 0.00 100 958.4
20260905063614 58 229 2.0 12.0 0.00 0.00 0.00 100 958.1
20260905063513 58 235 2.0 12.0 0.00 0.00 0.00 100 958.1
20260905063411 58 233 3.0 12.0 0.00 0.00 0.00 100 958.1
20260905063208 58 232 2.0 9.0 0.00 0.00 0.00 100 958.2
20260905063005 58 223 2.0 9.0 0.00 0.00 0.00 100 958.1
20260905062904 58 232 2.0 12.0 0.00 0.00 0.00 100 958.0
20260905062801 58 233 2.0 12.0 0.00 0.00 0.00 100 958.0
20260905062557 58 227 3.0 12.0 0.00 0.00 0.00 100 958.1
20260905062354 58 232 2.0 14.0 0.00 0.00 0.00 100 958.4
20260905062254 58 233 2.0 14.0 0.00 0.00 0.00 100 958.4
20260905062151 58 235 3.0 14.0 0.00 0.00 0.00 100 958.5
20260905061948 58 222 2.0 9.0 0.00 0.00 0.00 100 958.6
20260905061745 59 230 2.0 11.0 0.00 0.00 0.00 100 958.6
20260905061645 59 241 3.0 12.0 0.00 0.00 0.00 100 958.7
20260905061542 59 245 4.0 16.0 0.00 0.00 0.00 100 958.6
20260905061339 59 253 6.0 17.0 0.00 0.00 0.00 100 958.6
20260905061136 59 252 6.0 17.0 0.00 0.00 0.00 100 958.4
20260905061036 59 253 6.0 17.0 0.00 0.00 0.00 100 958.2
20260905060933 59 252 6.0 16.0 0.00 0.00 0.00 100 958.2
20260905060730 59 267 8.0 16.0 0.00 0.00 0.00 100 958.3
20260905060527 59 277 9.0 16.0 0.00 0.00 0.00 100 958.2
20260905060427 60 273 9.0 21.0 0.00 0.00 0.00 100 958.2
20260905060324 59 268 7.0 21.0 0.00 0.00 0.00 100 958.3
20260905060121 60 257 7.0 19.0 0.00 0.00 0.00 100 958.5
20260905055918 60 258 9.0 25.0 0.00 0.00 0.00 100 958.6
20260905055716 60 256 9.0 25.0 0.00 0.00 0.00 100 958.6
20260905055512 60 270 9.0 24.0 0.00 0.00 0.00 100 958.4
20260905055310 60 280 10.0 19.0 0.00 0.00 0.00 100 958.4
20260905055209 60 273 9.0 19.0 0.00 0.00 0.00 100 958.4
20260905055108 61 275 9.0 19.0 0.00 0.00 0.00 100 958.4
20260905054905 61 285 10.0 22.0 0.00 0.00 0.00 100 958.4
20260905054702 61 282 12.0 22.0 0.00 0.00 0.00 100 958.2
20260905054601 61 270 11.0 22.0 0.00 0.00 0.00 100 958.1
20260905054458 61 261 8.0 15.0 0.00 0.00 0.00 100 958.2
20260905054255 61 265 7.0 20.0 0.00 0.00 0.00 100 957.8
20260905054052 61 268 8.0 20.0 0.00 0.00 0.00 100 957.6
20260905053952 61 268 9.0 20.0 0.00 0.00 0.00 100 957.7
20260905053849 61 260 6.0 19.0 0.00 0.00 0.00 100 957.9
20260905053645 61 260 5.0 16.0 0.00 0.00 0.00 100 957.7
20260905053442 61 282 7.0 14.0 0.00 0.00 0.00 100 957.9
20260905053341 61 283 7.0 14.0 0.00 0.00 0.00 100 958.1
20260905053239 61 281 8.0 14.0 0.00 0.00 0.00 100 958.3
20260905053036 61 275 7.0 14.0 0.00 0.00 0.00 100 958.1
20260905052833 61 266 6.0 12.0 0.00 0.00 0.00 100 957.9
20260905052630 61 277 8.0 14.0 0.00 0.00 0.00 100 957.8
20260905052426 61 295 9.0 15.0 0.00 0.00 0.00 100 957.9
20260905052223 61 301 8.0 15.0 0.00 0.00 0.00 100 957.9
20260905052123 61 298 8.0 14.0 0.00 0.00 0.00 100 957.9
20260905052021 61 300 8.0 14.0 0.00 0.00 0.00 100 957.8
20260905051818 61 300 8.0 14.0 0.00 0.00 0.00 100 957.7
20260905051614 61 307 6.0 10.0 0.00 0.00 0.00 100 957.7
20260905051514 61 304 6.0 10.0 0.00 0.00 0.00 100 957.7
20260905051412 61 307 7.0 15.0 0.00 0.00 0.00 100 957.6
20260905051208 61 308 8.0 15.0 0.00 0.00 0.00 100 957.6
20260905051005 61 304 7.0 12.0 0.00 0.00 0.00 100 957.6
20260905050905 61 301 7.0 12.0 0.00 0.00 0.00 100 957.5
20260905050802 61 297 7.0 12.0 0.00 0.00 0.00 100 957.5
20260905050546 61 311 7.0 16.0 0.00 0.00 0.00 100 957.3
20260905050343 61 308 8.0 16.0 0.00 0.00 0.00 100 956.9
20260905050242 61 302 9.0 16.0 0.00 0.00 0.00 100 957.0
20260905050140 61 299 9.0 15.0 0.00 0.00 0.00 100 957.0
20260905045936 61 296 11.0 18.0 0.00 0.00 0.00 100 957.4
20260905045733 61 295 11.0 19.0 0.00 0.00 0.00 100 957.4
20260905045633 61 295 11.0 19.0 0.00 0.00 0.00 100 957.4
20260905045530 61 295 11.0 19.0 0.00 0.00 0.00 100 957.7
20260905045327 61 295 9.0 17.0 0.00 0.00 0.00 100 958.0
20260905045124 61 298 9.0 12.0 0.00 0.00 0.00 100 957.7
20260905045024 61 301 8.0 12.0 0.00 0.00 0.00 100 957.6
20260905044921 61 305 8.0 12.0 0.00 0.00 0.00 100 957.5
20260905044719 60 303 9.0 15.0 0.00 0.00 0.00 100 957.2
20260905044515 61 291 8.0 15.0 0.00 0.00 0.00 100 957.4
20260905044414 61 289 8.0 15.0 0.00 0.00 0.00 100 957.3
20260905044312 60 290 7.0 12.0 0.00 0.00 0.00 100 957.3
20260905044109 61 296 7.0 12.0 0.00 0.00 0.00 100 957.2
20260905043906 60 299 7.0 12.0 0.00 0.00 0.00 100 957.1
20260905043805 60 306 7.0 12.0 0.00 0.00 0.00 100 957.1
20260905043702 61 309 8.0 12.0 0.00 0.00 0.00 100 957.1
20260905043500 61 309 8.0 13.0 0.00 0.00 0.00 100 957.2
20260905043257 61 312 9.0 14.0 0.00 0.00 0.00 100 957.2
20260905043249 61 316 9.0 14.0 0.00 0.00 0.00 100 957.3
20260905043156 61 316 9.0 14.0 0.00 0.00 0.00 100 957.3
20260905043054 61 314 10.0 17.0 0.00 0.00 0.00 100 957.3
20260905042851 61 296 11.0 20.0 0.00 0.00 0.00 100 957.3
20260905042648 61 283 9.0 20.0 0.00 0.00 0.00 100 957.2
20260905042548 61 277 8.0 13.0 0.00 0.00 0.00 100 957.3
20260905042444 61 285 10.0 24.0 0.00 0.00 0.00 100 957.2
20260905042241 61 293 10.0 23.0 0.00 0.00 0.00 100 957.3
20260905042038 60 294 9.0 20.0 0.00 0.00 0.00 100 957.3
20260905041937 61 281 9.0 13.0 0.00 0.00 0.00 100 957.2
20260905041835 60 282 8.0 16.0 0.00 0.00 0.00 100 957.2
20260905041632 60 285 8.0 15.0 0.00 0.00 0.00 100 957.1
20260905041428 60 289 8.0 15.0 0.00 0.00 0.00 100 956.9
20260905041327 61 291 9.0 15.0 0.00 0.00 0.00 100 957.0
20260905041225 61 295 11.0 30.0 0.00 0.00 0.00 100 956.8
20260905041022 61 295 12.0 30.0 0.00 0.00 0.00 100 956.6
20260905040819 61 283 11.0 21.0 0.00 0.00 0.00 100 956.7
20260905040617 62 285 8.0 21.0 0.00 0.00 0.00 100 957.0
20260905040414 62 300 7.0 12.0 0.00 0.00 0.00 100 957.2
20260905040211 62 320 7.0 10.0 0.00 0.00 0.00 100 957.1
20260905040111 62 322 6.0 10.0 0.00 0.00 0.00 100 957.0
20260905040008 62 320 4.0 9.0 0.00 0.00 0.00 100 957.0
20260905035805 62 310 3.0 5.0 0.00 0.00 0.00 100 956.9
20260905035602 62 315 3.0 7.0 0.00 0.00 0.00 100 956.8
20260905035501 62 313 4.0 7.0 0.00 0.00 0.00 100 956.7
20260905035359 63 318 4.0 7.0 0.00 0.00 0.00 100 956.7
20260905035156 63 325 4.0 6.0 0.00 0.00 0.00 100 956.6
20260905034953 63 324 4.0 10.0 0.00 0.00 0.00 100 956.6
20260905034749 62 318 3.0 10.0 0.00 0.00 0.00 100 956.7
20260905034546 62 318 3.0 10.0 0.00 0.00 0.00 100 956.7
20260905034343 62 331 4.0 9.0 0.00 0.00 0.00 100 956.6
20260905034242 62 333 5.0 9.0 0.00 0.00 0.00 100 956.6
20260905034140 62 335 5.0 9.0 0.00 0.00 0.00 100 956.5
20260905033937 62 320 6.0 10.0 0.00 0.00 0.00 100 956.5
20260905033734 62 299 5.0 10.0 0.00 0.00 0.00 100 956.6
20260905033632 62 292 5.0 10.0 0.00 0.00 0.00 100 956.6
20260905033530 62 282 5.0 12.0 0.00 0.00 0.00 100 956.6
20260905033327 62 293 6.0 12.0 0.00 0.00 0.00 100 956.4
20260905033124 62 306 6.0 10.0 0.00 0.00 0.00 100 956.4
20260905033023 62 313 5.0 10.0 0.00 0.00 0.00 100 956.3
20260905032920 62 310 5.0 10.0 0.00 0.00 0.00 100 956.5
20260905032717 62 316 4.0 6.0 0.00 0.00 0.00 100 956.4
20260905032513 62 311 4.0 8.0 0.00 0.00 0.00 100 956.4
20260905032413 62 299 5.0 13.0 0.00 0.00 0.00 100 956.3
20260905032310 62 296 6.0 14.0 0.00 0.00 0.00 100 956.3
20260905032107 62 297 8.0 21.0 0.00 0.00 0.00 100 956.2
20260905031905 62 290 10.0 21.0 0.00 0.00 0.00 100 956.3
20260905031701 62 294 11.0 16.0 0.00 0.00 0.00 100 956.3
20260905031458 62 299 10.0 16.0 0.00 0.00 0.00 100 956.6
20260905031254 62 292 9.0 14.0 0.00 0.00 0.00 100 956.7
20260905031153 62 296 8.0 14.0 0.00 0.00 0.00 100 956.7
20260905031051 62 296 8.0 14.0 0.00 0.00 0.00 100 956.6
20260905030848 62 302 8.0 14.0 0.00 0.00 0.00 100 956.7
20260905030645 62 311 9.0 14.0 0.00 0.00 0.00 100 956.5
20260905030545 62 309 9.0 14.0 0.00 0.00 0.00 100 956.6
20260905030443 62 309 10.0 18.0 0.00 0.00 0.00 100 956.6
20260905030240 62 300 10.0 18.0 0.00 0.00 0.00 100 956.7
20260905030036 62 300 11.0 18.0 0.00 0.00 0.00 100 956.6
20260905025936 62 301 11.0 18.0 0.00 0.00 0.00 100 956.6
20260905025833 62 301 11.0 18.0 0.00 0.00 0.00 100 956.6
20260905025630 62 302 11.0 18.0 0.00 0.00 0.00 100 956.6
20260905025427 62 302 9.0 16.0 0.00 0.00 0.00 100 956.6
20260905025326 62 304 8.0 16.0 0.00 0.00 0.00 100 956.6
20260905025224 62 299 8.0 16.0 0.00 0.00 0.00 100 956.7
20260905025021 62 301 8.0 12.0 0.00 0.00 0.00 100 956.7
20260905024817 62 296 9.0 16.0 0.00 0.00 0.00 100 956.7
20260905024716 62 289 10.0 16.0 0.00 0.00 0.00 100 956.7
20260905024614 62 287 10.0 16.0 0.00 0.00 0.00 100 956.4
20260905024410 62 295 9.0 15.0 0.00 0.00 0.00 100 956.3
20260905024207 62 301 8.0 12.0 0.00 0.00 0.00 100 956.5
20260905024107 62 301 9.0 14.0 0.00 0.00 0.00 100 956.6
20260905024005 62 296 10.0 18.0 0.00 0.00 0.00 100 956.6
20260905023801 62 296 9.0 18.0 0.00 0.00 0.00 100 956.6
20260905023558 62 296 6.0 13.0 0.00 0.00 0.00 100 956.8
20260905023457 62 303 5.0 10.0 0.00 0.00 0.00 100 956.8
20260905023355 62 304 5.0 12.0 0.00 0.00 0.00 100 956.8
20260905023152 62 300 7.0 13.0 0.00 0.00 0.00 100 956.7
20260905022949 63 308 8.0 14.0 0.00 0.00 0.00 100 956.7
20260905022848 63 323 8.0 14.0 0.00 0.00 0.00 100 956.7
20260905022746 63 323 8.0 14.0 0.00 0.00 0.00 100 956.6
20260905022533 63 314 8.0 17.0 0.00 0.00 0.00 100 956.7
20260905022330 63 295 10.0 17.0 0.00 0.00 0.00 100 956.7
20260905022127 63 296 11.0 16.0 0.00 0.00 0.00 100 956.8
20260905021924 63 300 10.0 16.0 0.00 0.00 0.00 100 956.9
20260905021721 62 298 8.0 15.0 0.00 0.00 0.00 100 957.0
20260905021620 62 293 6.0 10.0 0.00 0.00 0.00 100 956.9
20260905021517 62 288 6.0 9.0 0.00 0.00 0.00 100 956.9
20260905021314 62 293 6.0 9.0 0.00 0.00 0.00 100 957.0
20260905021111 62 298 7.0 12.0 0.00 0.00 0.00 100 956.9
20260905021010 63 303 7.0 12.0 0.00 0.00 0.00 100 956.9
20260905020908 63 308 7.0 14.0 0.00 0.00 0.00 100 956.9
20260905020705 63 299 8.0 16.0 0.00 0.00 0.00 100 956.8
20260905020502 63 292 8.0 16.0 0.00 0.00 0.00 100 956.8
20260905020402 62 297 8.0 13.0 0.00 0.00 0.00 100 956.7
20260905020259 63 302 8.0 13.0 0.00 0.00 0.00 100 956.8
20260905020055 63 316 8.0 15.0 0.00 0.00 0.00 100 956.8
20260905015852 63 307 10.0 16.0 0.00 0.00 0.00 100 956.7
20260905015752 63 300 10.0 18.0 0.00 0.00 0.00 100 956.8
20260905015649 63 297 10.0 18.0 0.00 0.00 0.00 100 956.8
20260905015445 63 310 8.0 18.0 0.00 0.00 0.00 100 956.7
20260905015242 63 316 11.0 24.0 0.00 0.00 0.00 100 956.7
20260905015142 63 310 11.0 24.0 0.00 0.00 0.00 100 956.6
20260905015039 63 306 11.0 24.0 0.00 0.00 0.00 100 956.7
20260905014835 63 310 7.0 17.0 0.00 0.00 0.00 100 956.5
20260905014632 62 307 8.0 12.0 0.00 0.00 0.00 100 956.6
20260905014533 63 298 8.0 12.0 0.00 0.00 0.00 100 956.7
20260905014429 63 296 8.0 12.0 0.00 0.00 0.00 100 956.8
20260905014226 63 299 8.0 12.0 0.00 0.00 0.00 100 956.8
20260905014023 62 301 8.0 12.0 0.00 0.00 0.00 100 956.7
20260905013922 63 305 8.0 12.0 0.00 0.00 0.00 100 956.7
20260905013820 62 304 8.0 11.0 0.00 0.00 0.00 100 956.8
20260905013618 62 308 8.0 17.0 0.00 0.00 0.00 100 956.6
20260905013414 62 312 7.0 17.0 0.00 0.00 0.00 100 956.8
20260905013314 62 311 7.0 17.0 0.00 0.00 0.00 100 956.6
20260905013211 62 308 7.0 12.0 0.00 0.00 0.00 100 956.6
20260905013008 62 308 7.0 12.0 0.00 0.00 0.00 100 956.7
20260905012805 62 304 7.0 13.0 0.00 0.00 0.00 100 956.7
20260905012704 62 303 9.0 16.0 0.00 0.00 0.00 100 956.7
20260905012602 62 304 10.0 16.0 0.00 0.00 0.00 100 956.7
20260905012359 62 302 10.0 16.0 0.00 0.00 0.00 100 956.6
20260905012156 62 316 8.0 16.0 0.00 0.00 0.00 100 956.4
20260905012055 62 319 11.0 25.0 0.00 0.00 0.00 100 956.5
20260905011952 62 319 11.0 25.0 0.00 0.00 0.00 100 956.6
20260905011749 62 319 10.0 25.0 0.00 0.00 0.00 100 956.5
20260905011546 63 311 12.0 26.0 0.00 0.00 0.00 100 956.5
20260905011445 63 312 14.0 26.0 0.00 0.00 0.00 100 956.6
20260905011342 63 311 14.0 26.0 0.00 0.00 0.00 100 956.6
20260905011139 63 319 13.0 24.0 0.00 0.00 0.00 100 956.4
20260905010936 63 324 9.0 16.0 0.00 0.00 0.00 100 956.5
20260905010836 63 321 10.0 16.0 0.00 0.00 0.00 100 956.4
20260905010733 63 318 10.0 16.0 0.00 0.00 0.00 100 956.6
20260905010530 63 300 13.0 28.0 0.00 0.00 0.00 100 956.5
20260905010326 63 296 12.0 28.0 0.00 0.00 0.00 100 956.5
20260905010225 63 298 10.0 23.0 0.00 0.00 0.00 100 956.5
20260905010123 63 311 8.0 22.0 0.00 0.00 0.00 100 956.7
20260905005920 63 336 5.0 14.0 0.00 0.00 0.00 100 956.4
20260905005717 63 335 5.0 10.0 0.00 0.00 0.00 100 956.4
20260905005617 63 326 5.0 10.0 0.00 0.00 0.00 100 956.4
20260905005515 63 321 6.0 10.0 0.00 0.00 0.00 100 956.2
20260905005312 63 319 7.0 10.0 0.00 0.00 0.00 100 956.4
20260905005109 63 321 7.0 10.0 0.00 0.00 0.00 100 956.3
20260905005008 63 320 7.0 11.0 0.00 0.00 0.00 100 956.3
20260905004906 63 325 7.0 11.0 0.00 0.00 0.00 100 956.2
20260905004703 63 323 6.0 13.0 0.00 0.00 0.00 100 956.2
20260905004500 63 320 7.0 13.0 0.00 0.00 0.00 100 956.2
20260905004359 64 317 8.0 16.0 0.00 0.00 0.00 100 956.0
20260905004256 64 318 8.0 16.0 0.00 0.00 0.00 100 956.1
20260905004053 64 315 8.0 16.0 0.00 0.00 0.00 100 956.0
20260905003850 64 329 7.0 12.0 0.00 0.00 0.00 100 956.0
20260905003748 64 333 7.0 11.0 0.00 0.00 0.00 100 956.0
20260905003646 64 332 7.0 13.0 0.00 0.00 0.00 100 956.0
20260905003443 64 324 8.0 13.0 0.00 0.00 0.00 100 956.0
20260905003239 64 321 9.0 15.0 0.00 0.00 0.00 100 955.8
20260905003139 64 322 8.0 15.0 0.00 0.00 0.00 100 955.9
20260905003036 64 322 8.0 15.0 0.00 0.00 0.00 100 955.9
20260905002833 64 342 6.0 11.0 0.00 0.00 0.00 100 955.7
20260905002630 64 341 6.0 10.0 0.00 0.00 0.00 100 955.7
20260905002529 64 339 6.0 10.0 0.00 0.00 0.00 100 955.6
20260905002427 64 330 6.0 10.0 0.00 0.00 0.00 100 955.5
20260905002225 65 331 7.0 12.0 0.00 0.00 0.00 100 955.5
20260905002022 64 335 8.0 13.0 0.00 0.00 0.00 100 955.4
20260905001921 65 339 8.0 13.0 0.00 0.00 0.00 100 955.5
20260905001819 65 338 8.0 16.0 0.00 0.00 0.00 100 955.3
20260905001616 65 335 9.0 16.0 0.00 0.00 0.00 100 955.3
20260905001413 65 336 9.0 15.0 0.00 0.00 0.00 100 955.1
20260905001313 65 336 8.0 12.0 0.00 0.00 0.00 100 955.3
20260905001209 65 328 8.0 14.0 0.00 0.00 0.00 100 955.2
20260905001006 65 322 9.0 21.0 0.00 0.00 0.00 100 955.3
20260905000803 65 326 10.0 21.0 0.00 0.00 0.00 100 955.2
20260905000702 65 326 9.0 21.0 0.00 0.00 0.00 100 955.1
20260905000600 65 333 9.0 21.0 0.00 0.00 0.00 100 955.1
20260905000357 66 332 8.0 16.0 0.00 0.00 0.00 100 955.1
20260905000154 66 324 7.0 14.0 0.00 0.00 0.00 100 955.1
20260905000053 66 319 6.0 14.0 0.00 0.00 0.00 100 955.1
20260904235951 66 325 6.0 12.0 0.00 0.00 0.00 100 955.0
20260904235747 66 347 4.0 6.0 0.00 0.00 0.00 100 955.0
20260904235545 67 355 3.0 7.0 0.00 0.00 0.00 100 954.8
20260904235444 67 322 3.0 7.0 0.00 0.00 0.00 100 954.8
20260904235341 67 300 4.0 9.0 0.00 0.00 0.00 100 954.9
20260904235138 67 287 6.0 10.0 0.00 0.00 0.00 100 954.9
20260904234935 67 301 5.0 10.0 0.00 0.00 0.00 100 954.8
20260904234834 67 311 4.0 10.0 0.00 0.00 0.00 100 954.7
20260904234718 67 316 2.0 7.0 0.00 0.00 0.00 100 954.7
20260904234515 67 252 2.0 9.0 0.00 0.00 0.00 100 954.6
20260904234311 67 239 2.0 9.0 0.00 0.00 0.00 100 954.6
20260904234210 67 0 1.0 9.0 0.00 0.00 0.00 100 954.6
20260904234108 67 0 2.0 5.0 0.00 0.00 0.00 100 954.6
20260904233905 68 294 3.0 13.0 0.00 0.00 0.00 100 954.5
20260904233702 68 287 6.0 16.0 0.00 0.00 0.00 100 954.5
20260904233601 68 291 7.0 16.0 0.00 0.00 0.00 100 954.4
20260904233459 68 298 7.0 16.0 0.00 0.00 0.00 100 954.5
20260904233255 68 325 6.0 11.0 0.00 0.00 0.00 100 954.3
20260904232952 69 328 8.0 18.0 0.00 0.00 0.00 100 954.3
20260904232849 69 324 8.0 18.0 0.00 0.00 0.00 100 954.1
20260904232645 70 314 10.0 22.0 0.00 0.00 0.00 100 954.2
20260904232442 70 308 13.0 22.0 0.00 0.00 0.00 100 954.0
20260904232342 70 308 14.0 22.0 0.00 0.00 0.00 100 953.9
20260904232240 70 310 14.0 22.0 0.00 0.00 0.00 100 953.9
20260904232037 71 307 12.0 20.0 0.00 0.00 0.00 100 953.9
20260904231834 71 302 12.0 20.0 0.00 0.00 0.00 100 953.9
20260904231733 71 300 13.0 22.0 0.00 0.00 0.00 100 953.9
20260904231631 71 299 13.0 22.0 0.00 0.00 0.00 100 953.7
20260904231428 72 301 15.0 24.0 0.00 0.00 0.00 100 953.7
20260904231225 72 303 14.0 24.0 0.00 0.00 0.00 100 953.8
20260904231124 72 298 15.0 24.0 0.00 0.00 0.00 100 953.7
20260904231021 72 295 13.0 22.0 0.00 0.00 0.00 100 953.7
20260904230818 73 296 15.0 27.0 0.00 0.00 0.00 100 953.7
20260904230615 73 294 16.0 27.0 0.00 0.00 0.00 100 953.5
20260904230515 73 289 16.0 27.0 0.00 0.00 0.00 100 953.5
20260904230412 73 284 13.0 27.0 0.00 0.00 0.00 100 953.4
20260904230209 73 284 9.0 16.0 0.00 0.00 0.00 100 953.5
20260904230006 73 267 8.0 20.0 0.00 0.00 0.00 100 953.5
20260904225905 73 255 6.0 20.0 0.00 0.00 0.00 100 953.4
20260904225803 73 249 5.0 20.0 0.00 0.00 0.00 100 953.4
20260904225559 72 238 3.0 17.0 0.00 0.00 0.00 100 953.3
20260904225356 72 239 2.0 7.0 0.00 0.00 0.00 100 953.2
20260904225256 72 241 2.0 7.0 0.00 0.00 0.00 100 953.2
20260904225153 73 241 3.0 9.0 0.00 0.00 0.00 100 953.1
20260904224950 73 257 3.0 9.0 0.00 0.00 0.00 100 953.2
20260904224747 72 252 3.0 8.0 0.00 0.00 0.00 100 953.3
20260904224646 72 242 3.0 8.0 0.00 0.00 0.00 100 953.3
20260904224543 73 244 3.0 8.0 0.00 0.00 0.00 100 953.3
20260904224340 72 250 2.0 8.0 0.00 0.00 0.00 100 953.2
20260904224137 73 246 3.0 9.0 0.00 0.00 0.00 100 953.3
20260904224036 73 245 3.0 9.0 0.00 0.00 0.00 100 953.3
20260904223933 73 263 4.0 9.0 0.00 0.00 0.00 100 953.3
20260904223730 73 265 5.0 11.0 0.00 0.00 0.00 100 953.4
20260904223527 73 253 4.0 11.0 0.00 0.00 0.00 100 953.4
20260904223426 72 246 3.0 11.0 0.00 0.00 0.00 100 953.4
20260904223324 72 241 3.0 11.0 0.00 0.00 0.00 100 953.4
20260904223121 72 244 3.0 11.0 0.00 0.00 0.00 100 953.3
20260904222919 72 241 2.0 10.0 0.00 0.00 0.00 100 953.3
20260904222818 72 223 2.0 8.0 0.00 0.00 0.00 100 953.3
20260904222717 72 241 2.0 13.0 0.00 0.00 0.00 100 953.3
20260904222514 73 251 2.0 13.0 0.00 0.00 0.00 100 953.3
20260904222311 72 239 2.0 13.0 0.00 0.00 0.00 100 953.4
20260904222210 72 235 2.0 11.0 0.00 0.00 0.00 100 953.4
20260904222108 72 232 2.0 11.0 0.00 0.00 0.00 100 953.4
20260904221905 72 233 2.0 9.0 0.00 0.00 0.00 100 953.3
20260904221702 72 229 3.0 13.0 0.00 0.00 0.00 100 953.4
20260904221601 72 224 3.0 13.0 0.00 0.00 0.00 100 953.4
20260904221458 72 226 3.0 13.0 0.00 0.00 0.00 100 953.4
20260904221255 72 225 2.0 11.0 0.00 0.00 0.00 100 953.4
20260904221051 72 249 2.0 7.0 0.00 0.00 0.00 100 953.2
20260904220951 72 243 2.0 7.0 0.00 0.00 0.00 100 953.4
20260904220848 72 247 2.0 7.0 0.00 0.00 0.00 100 953.4
20260904220645 72 239 2.0 8.0 0.00 0.00 0.00 100 953.4
20260904220442 72 247 2.0 8.0 0.00 0.00 0.00 100 953.5
20260904220341 72 244 3.0 8.0 0.00 0.00 0.00 100 953.5
20260904220239 72 244 2.0 10.0 0.00 0.00 0.00 100 953.4
20260904220036 72 233 3.0 11.0 0.00 0.00 0.00 100 953.5
20260904215833 72 221 3.0 11.0 0.00 0.00 0.00 100 953.5
20260904215733 72 217 3.0 11.0 0.00 0.00 0.00 100 953.5
20260904215630 72 215 3.0 11.0 0.00 0.00 0.00 100 953.3
20260904215427 72 220 2.0 9.0 0.00 0.00 0.00 100 953.5
20260904215225 72 0 2.0 11.0 0.00 0.00 0.00 100 953.5
20260904215124 72 0 2.0 11.0 0.00 0.00 0.00 100 953.5
20260904215021 72 0 2.0 11.0 0.00 0.00 0.00 100 953.5
20260904214819 72 211 2.0 9.0 0.00 0.00 0.00 100 953.6
20260904214616 72 218 2.0 12.0 0.00 0.00 0.00 100 953.6
20260904214515 72 221 2.0 12.0 0.00 0.00 0.00 100 953.6
20260904214412 72 234 2.0 12.0 0.00 0.00 0.00 100 953.6
20260904214210 72 239 2.0 10.0 0.00 0.00 0.00 100 953.7
20260904214006 72 231 2.0 10.0 0.00 0.00 0.00 100 953.7
20260904213906 72 228 2.0 10.0 0.00 0.00 0.00 100 953.6
20260904213803 72 232 2.0 10.0 0.00 0.00 0.00 100 953.6
20260904213600 72 226 2.0 13.0 0.00 0.00 0.00 100 953.6
20260904213356 72 222 3.0 13.0 0.00 0.00 0.00 100 953.5
20260904213255 72 229 3.0 13.0 0.00 0.00 0.00 100 953.5
20260904213153 72 236 3.0 13.0 0.00 0.00 0.00 100 953.5
20260904212950 72 247 4.0 14.0 0.00 0.00 0.00 100 953.6
20260904212747 72 247 4.0 14.0 0.00 0.00 0.00 100 953.6
20260904212543 72 243 2.0 12.0 0.00 0.00 0.00 100 953.6
20260904212340 72 244 3.0 12.0 0.00 0.00 0.00 100 953.6
20260904212138 72 243 3.0 10.0 0.00 0.00 0.00 100 953.6
20260904212037 72 243 3.0 15.0 0.00 0.00 0.00 100 953.5
20260904211934 73 247 5.0 15.0 0.00 0.00 0.00 100 953.5
20260904211732 73 254 6.0 15.0 0.00 0.00 0.00 100 953.3
20260904211528 73 251 6.0 15.0 0.00 0.00 0.00 100 953.4
20260904211428 72 248 5.0 15.0 0.00 0.00 0.00 100 953.5
20260904211325 73 248 5.0 15.0 0.00 0.00 0.00 100 953.5
20260904211122 73 244 5.0 15.0 0.00 0.00 0.00 100 953.5
20260904210919 73 248 5.0 17.0 0.00 0.00 0.00 100 953.4
20260904210805 72 252 6.0 17.0 0.00 0.00 0.00 100 953.4
20260904210702 72 252 5.0 17.0 0.00 0.00 0.00 100 953.5
20260904210500 72 250 5.0 14.0 0.00 0.00 0.00 100 953.5
20260904210257 72 234 3.0 11.0 0.00 0.00 0.00 100 953.5
20260904210156 72 240 3.0 12.0 0.00 0.00 0.00 100 953.5
20260904210053 72 235 3.0 12.0 0.00 0.00 0.00 100 953.5
20260904205850 72 239 3.0 14.0 0.00 0.00 0.00 100 953.5
20260904205647 72 234 3.0 14.0 0.00 0.00 0.00 100 953.5
20260904205546 73 233 3.0 14.0 0.00 0.00 0.00 100 953.4
20260904205444 73 231 3.0 10.0 0.00 0.00 0.00 100 953.5
20260904205241 73 237 2.0 10.0 0.00 0.00 0.00 100 953.4
20260904205038 72 235 2.0 11.0 0.00 0.00 0.00 100 953.5
20260904204938 72 227 2.0 11.0 0.00 0.00 0.00 100 953.6
20260904204835 73 220 2.0 8.0 0.00 0.00 0.00 100 953.5
20260904204631 73 228 3.0 13.0 0.00 0.00 0.00 100 953.5
20260904204428 73 230 3.0 13.0 0.00 0.00 0.00 100 953.4
20260904204328 73 229 3.0 11.0 0.00 0.00 0.00 100 953.5
20260904204225 73 221 2.0 11.0 0.00 0.00 0.00 100 953.6
20260904204022 73 225 3.0 11.0 0.00 0.00 0.00 100 953.5
20260904203818 73 230 4.0 17.0 0.00 0.00 0.00 100 953.5
20260904203718 73 229 4.0 17.0 0.00 0.00 0.00 100 953.5
20260904203616 73 231 4.0 17.0 0.00 0.00 0.00 100 953.5
20260904203412 73 233 3.0 12.0 0.00 0.00 0.00 100 953.6
20260904203209 73 242 2.0 11.0 0.00 0.00 0.00 100 953.6
20260904203108 73 236 2.0 13.0 0.00 0.00 0.00 100 953.6
20260904203005 73 234 3.0 13.0 0.00 0.00 0.00 100 953.6
20260904202802 73 237 3.0 15.0 0.00 0.00 0.00 100 953.6
20260904202600 73 242 4.0 15.0 0.00 0.00 0.00 100 953.5
20260904202458 73 242 3.0 14.0 0.00 0.00 0.00 100 953.6
20260904202356 73 241 4.0 14.0 0.00 0.00 0.00 100 953.6
20260904202153 73 235 3.0 11.0 0.00 0.00 0.00 100 953.6
20260904201950 73 227 2.0 9.0 0.00 0.00 0.00 100 953.5
20260904201849 73 232 3.0 14.0 0.00 0.00 0.00 100 953.5
20260904201747 72 242 3.0 14.0 0.00 0.00 0.00 100 953.7
20260904201544 72 245 4.0 14.0 0.00 0.00 0.00 100 953.6
20260904201341 72 235 3.0 9.0 0.00 0.00 0.00 100 953.6
20260904201240 72 236 2.0 12.0 0.00 0.00 0.00 100 953.6
20260904201138 72 237 2.0 12.0 0.00 0.00 0.00 100 953.8
20260904200935 73 221 2.0 12.0 0.00 0.00 0.00 100 953.8
20260904200732 72 218 2.0 8.0 0.00 0.00 0.00 100 953.8
20260904200529 72 222 2.0 9.0 0.00 0.00 0.00 100 953.7
20260904200326 72 225 2.0 9.0 0.00 0.00 0.00 100 953.8
20260904200123 72 237 2.0 7.0 0.00 0.00 0.00 100 953.8
20260904200022 72 238 2.0 5.0 0.00 0.00 0.00 100 954.0
20260904195920 72 224 2.0 10.0 0.00 0.00 0.00 100 953.9
20260904195717 72 220 3.0 10.0 0.00 0.00 0.00 100 954.0
20260904195514 72 211 2.0 10.0 0.00 0.00 0.00 100 954.1
20260904195414 72 221 2.0 9.0 0.00 0.00 0.00 100 954.1
20260904195312 72 233 2.0 8.0 0.00 0.00 0.00 100 954.1
20260904195109 72 242 2.0 9.0 0.00 0.00 0.00 100 954.2
20260904194906 72 217 2.0 9.0 0.00 0.00 0.00 100 954.1
20260904194804 72 218 2.0 9.0 0.00 0.00 0.00 100 954.4
20260904194702 72 218 2.0 9.0 0.00 0.00 0.00 100 954.1
20260904194459 72 234 3.0 12.0 0.00 0.00 0.00 100 954.2
20260904194256 72 246 3.0 14.0 0.00 0.00 0.00 100 954.3
20260904194155 72 247 4.0 14.0 0.00 0.00 0.00 100 954.2
20260904194052 72 242 3.0 14.0 0.00 0.00 0.00 100 954.2
20260904193849 72 253 4.0 13.0 0.00 0.00 0.00 100 954.3
20260904193647 72 253 4.0 13.0 0.00 0.00 0.00 100 954.2
20260904193546 72 250 3.0 13.0 0.00 0.00 0.00 100 954.2
20260904193443 72 230 2.0 7.0 0.00 0.00 0.00 100 954.2
20260904193240 72 218 2.0 6.0 0.00 0.00 0.00 100 954.3
20260904193036 72 222 2.0 14.0 0.00 0.00 0.00 100 954.2
20260904192833 72 228 3.0 14.0 0.00 0.00 0.00 100 954.1
20260904192630 72 219 3.0 12.0 0.00 0.00 0.00 100 954.0
20260904192426 72 221 3.0 12.0 0.00 0.00 0.00 100 954.1
20260904192326 72 224 2.0 12.0 0.00 0.00 0.00 100 954.2
20260904192223 72 224 2.0 11.0 0.00 0.00 0.00 100 954.1
20260904192020 72 226 2.0 9.0 0.00 0.00 0.00 100 954.1
20260904191817 72 252 2.0 6.0 0.00 0.00 0.00 100 954.2
20260904191716 72 250 2.0 6.0 0.00 0.00 0.00 100 954.2
20260904191613 72 242 2.0 11.0 0.00 0.00 0.00 100 954.2
20260904191411 72 225 3.0 11.0 0.00 0.00 0.00 100 954.3
20260904191207 72 227 2.0 11.0 0.00 0.00 0.00 100 954.3
20260904191004 72 221 2.0 10.0 0.00 0.00 0.00 100 954.4
20260904190802 72 220 2.0 10.0 0.00 0.00 0.00 100 954.3
20260904190558 72 235 2.0 10.0 0.00 0.00 0.00 100 954.3
20260904190458 72 234 2.0 10.0 0.00 0.00 0.00 100 954.3
20260904190355 72 230 2.0 8.0 0.00 0.00 0.00 100 954.3
20260904190152 72 220 3.0 10.0 0.00 0.00 0.00 100 954.4
20260904185949 72 242 3.0 10.0 0.00 0.00 0.00 100 954.3
20260904185848 72 244 3.0 16.0 0.00 0.00 0.00 100 954.3
20260904185745 72 243 3.0 16.0 0.00 0.00 0.00 100 954.4
20260904185542 72 244 4.0 16.0 0.00 0.00 0.00 100 954.3
20260904185340 73 241 3.0 16.0 0.00 0.00 0.00 100 954.2
20260904185239 73 234 3.0 16.0 0.00 0.00 0.00 100 954.2
20260904185136 72 215 2.0 6.0 0.00 0.00 0.00 100 954.3
20260904184933 72 240 2.0 8.0 0.00 0.00 0.00 100 954.3
20260904184730 72 234 3.0 8.0 0.00 0.00 0.00 100 954.4
20260904184527 72 209 2.0 7.0 0.00 0.00 0.00 100 954.4
20260904184323 72 240 2.0 10.0 0.00 0.00 0.00 100 954.4
20260904184120 72 247 3.0 10.0 0.00 0.00 0.00 100 954.3
20260904184019 72 247 3.0 10.0 0.00 0.00 0.00 100 954.3
20260904183825 72 238 4.0 17.0 0.00 0.00 0.00 100 954.4
20260904183623 72 233 3.0 17.0 0.00 0.00 0.00 100 954.4
20260904183523 72 235 3.0 17.0 0.00 0.00 0.00 100 954.3
20260904183420 72 225 2.0 11.0 0.00 0.00 0.00 100 954.3
20260904183217 72 241 2.0 11.0 0.00 0.00 0.00 100 954.3
20260904183013 72 250 4.0 11.0 0.00 0.00 0.00 100 954.2
20260904182913 72 248 4.0 11.0 0.00 0.00 0.00 100 954.3
20260904182810 72 251 4.0 11.0 0.00 0.00 0.00 100 954.3
20260904182606 72 237 3.0 10.0 0.00 0.00 0.00 100 954.2
20260904182403 72 226 2.0 6.0 0.00 0.00 0.00 100 954.2
20260904182249 72 244 2.0 6.0 0.00 0.00 0.00 100 954.3
20260904182147 72 247 2.0 8.0 0.00 0.00 0.00 100 954.2
20260904181943 72 242 2.0 8.0 0.00 0.00 0.00 100 954.1
20260904181740 72 215 2.0 8.0 0.00 0.00 0.00 100 954.2
20260904181639 72 226 2.0 8.0 0.00 0.00 0.00 100 954.1
20260904181536 72 235 2.0 8.0 0.00 0.00 0.00 100 954.1
20260904181333 72 233 2.0 8.0 0.00 0.00 0.00 100 954.0
20260904181130 72 218 2.0 8.0 0.00 0.00 0.00 100 954.0
20260904181029 72 232 2.0 7.0 0.00 0.00 0.00 100 954.1
20260904180927 72 238 2.0 11.0 0.00 0.00 0.00 100 954.0
20260904180724 72 232 2.0 11.0 0.00 0.00 0.00 100 954.1
20260904180520 72 220 3.0 11.0 0.00 0.00 0.00 100 954.0
20260904180419 72 220 2.0 9.0 0.00 0.00 0.00 100 954.0
20260904180317 72 217 2.0 9.0 0.00 0.00 0.00 100 953.8
20260904180114 72 216 2.0 10.0 0.00 0.00 0.00 100 953.9
20260904175911 72 221 2.0 10.0 0.00 0.00 0.00 100 953.8
20260904175708 72 223 2.0 7.0 0.00 0.00 0.00 100 953.8
20260904175504 72 225 2.0 9.0 0.00 0.00 0.00 100 953.8
20260904175301 72 220 2.0 9.0 0.00 0.00 0.00 100 953.7
20260904175200 72 221 2.0 9.0 0.00 0.00 0.00 100 953.8
20260904175058 72 232 2.0 10.0 0.00 0.00 0.00 100 953.8
20260904174855 72 218 2.0 10.0 0.00 0.00 0.00 100 953.8
20260904174652 72 211 2.0 8.0 0.00 0.00 0.00 100 953.7
20260904174551 72 215 2.0 7.0 0.00 0.00 0.00 100 953.8
20260904174448 72 227 2.0 8.0 0.00 0.00 0.00 100 953.7
20260904174245 72 235 2.0 8.0 0.00 0.00 0.00 100 953.6
20260904174042 72 234 3.0 14.0 0.00 0.00 0.00 100 953.6
20260904173839 72 230 3.0 14.0 0.00 0.00 0.00 100 953.5
20260904173636 72 222 3.0 13.0 0.00 0.00 0.00 100 953.6
20260904173433 72 217 2.0 12.0 0.00 0.00 0.00 100 953.5
20260904173332 72 211 2.0 11.0 0.00 0.00 0.00 100 953.5
20260904173230 72 215 2.0 13.0 0.00 0.00 0.00 100 953.5
20260904173027 72 221 2.0 13.0 0.00 0.00 0.00 100 953.4
20260904172824 72 217 2.0 13.0 0.00 0.00 0.00 100 953.5
20260904172621 72 206 2.0 12.0 0.00 0.00 0.00 100 953.5
20260904172418 72 209 2.0 10.0 0.00 0.00 0.00 100 953.6
20260904172215 72 219 2.0 10.0 0.00 0.00 0.00 100 953.5
20260904172114 72 222 2.0 10.0 0.00 0.00 0.00 100 953.6
20260904172012 72 227 2.0 7.0 0.00 0.00 0.00 100 953.6
20260904171809 72 218 2.0 7.0 0.00 0.00 0.00 100 953.6
20260904171606 72 213 2.0 7.0 0.00 0.00 0.00 100 953.7
20260904171505 72 218 1.0 5.0 0.00 0.00 0.00 100 953.7
20260904171402 72 222 2.0 7.0 0.00 0.00 0.00 100 953.7
20260904171158 72 206 3.0 11.0 0.00 0.00 0.00 100 953.6
20260904170955 72 197 3.0 11.0 0.00 0.00 0.00 100 953.6
20260904170855 72 195 4.0 16.0 0.00 0.00 0.00 100 953.6
20260904170753 72 199 3.0 16.0 0.00 0.00 0.00 100 953.6
20260904170550 72 196 2.0 16.0 0.00 0.00 0.00 100 953.7
20260904170346 72 219 3.0 10.0 0.00 0.00 0.00 100 953.7
20260904170245 72 218 3.0 10.0 0.00 0.00 0.00 100 953.7
20260904170143 72 214 3.0 10.0 0.00 0.00 0.00 100 953.7
20260904165940 72 179 2.0 7.0 0.00 0.00 0.00 100 953.8
20260904165736 72 164 2.0 5.0 0.00 0.00 0.00 100 953.7
20260904165636 72 180 2.0 6.0 0.00 0.00 0.00 100 953.7
20260904165534 72 199 1.0 6.0 0.00 0.00 0.00 100 953.7
20260904165331 72 203 2.0 6.0 0.00 0.00 0.00 100 953.8
20260904165127 72 222 2.0 6.0 0.00 0.00 0.00 100 953.7
20260904165026 72 206 2.0 7.0 0.00 0.00 0.00 100 953.7
20260904164924 72 200 2.0 7.0 0.00 0.00 0.00 100 953.8
20260904164721 72 182 2.0 8.0 0.00 0.00 0.00 100 953.7
20260904164518 72 171 3.0 13.0 0.00 0.00 0.00 100 953.7
20260904164417 72 168 3.0 13.0 0.00 0.00 0.00 100 953.7
20260904164314 72 172 3.0 13.0 0.00 0.00 0.00 100 953.6
20260904164110 72 194 2.0 5.0 0.00 0.00 0.00 100 953.8
20260904163908 72 189 1.0 3.0 0.00 0.00 0.00 100 953.7
20260904163807 72 194 1.0 3.0 0.00 0.00 0.00 100 953.7
20260904163705 72 182 1.0 6.0 0.00 0.00 0.00 100 953.8
20260904163502 72 194 1.0 6.0 0.00 0.00 0.00 100 953.8
20260904163259 72 177 2.0 8.0 0.00 0.00 0.00 100 953.9
20260904163158 72 173 2.0 8.0 0.00 0.00 0.00 100 953.8
20260904163055 72 158 3.0 8.0 0.00 0.00 0.00 100 953.9
20260904162852 72 172 2.0 7.0 0.00 0.00 0.00 100 954.0
20260904162648 72 186 2.0 7.0 0.00 0.00 0.00 100 954.1
20260904162548 72 192 1.0 7.0 0.00 0.00 0.00 100 954.1
20260904162445 72 189 2.0 7.0 0.00 0.00 0.00 100 954.2
20260904162243 72 178 2.0 6.0 0.00 0.00 0.00 100 954.2
20260904162040 72 175 2.0 6.0 0.00 0.00 0.00 100 954.3
20260904161939 72 0 1.0 6.0 0.00 0.00 0.00 100 954.3
20260904161837 72 211 1.0 6.0 0.00 0.00 0.00 100 954.3
20260904161634 72 205 1.0 6.0 0.00 0.00 0.00 100 954.5
20260904161430 72 182 1.0 6.0 0.00 0.00 0.00 100 954.5
20260904161330 72 177 2.0 7.0 0.00 0.00 0.00 100 954.4
20260904161227 72 169 3.0 7.0 0.00 0.00 0.00 100 954.5
20260904161024 72 162 4.0 10.0 0.00 0.00 0.00 100 954.6
20260904160821 72 165 3.0 10.0 0.00 0.00 0.00 100 954.6
20260904160720 72 169 3.0 8.0 0.00 0.00 0.00 100 954.7
20260904160617 72 170 3.0 8.0 0.00 0.00 0.00 100 954.8
20260904160414 73 164 4.0 9.0 0.00 0.00 0.00 100 954.8
20260904160211 73 174 3.0 9.0 0.00 0.00 0.00 100 954.8
20260904160110 73 181 2.0 9.0 0.00 0.00 0.00 100 954.7
20260904160008 73 206 2.0 6.0 0.00 0.00 0.00 100 954.8
20260904155805 73 170 2.0 7.0 0.00 0.00 0.00 100 954.9
20260904155602 73 156 2.0 7.0 0.00 0.00 0.00 100 954.8
20260904155500 73 154 3.0 7.0 0.00 0.00 0.00 100 954.8
20260904155358 73 155 2.0 7.0 0.00 0.00 0.00 100 954.7
20260904155155 73 170 2.0 9.0 0.00 0.00 0.00 100 954.9
20260904154951 73 249 4.0 9.0 0.00 0.00 0.00 100 955.0
20260904154851 73 252 3.0 9.0 0.00 0.00 0.00 100 954.9
20260904154748 73 261 2.0 9.0 0.00 0.00 0.00 100 954.9
20260904154545 73 0 2.0 4.0 0.00 0.00 0.00 100 954.9
20260904154328 73 152 2.0 6.0 0.00 0.00 0.00 100 955.0
20260904154227 73 118 2.0 7.0 0.00 0.00 0.00 100 955.0
20260904154125 73 0 3.0 10.0 0.00 0.00 0.00 100 955.0
20260904153922 73 0 3.0 10.0 0.00 0.00 0.00 100 955.0
20260904153718 73 141 2.0 8.0 0.00 0.00 0.00 100 955.0
20260904153618 73 133 2.0 6.0 0.00 0.00 0.00 100 955.0
20260904153515 73 141 3.0 8.0 0.00 0.00 0.00 100 955.2
20260904153313 73 142 2.0 8.0 0.00 0.00 0.00 100 955.1
20260904153109 73 181 2.0 4.0 0.00 0.00 0.00 100 955.1
20260904153008 73 178 2.0 9.0 0.00 0.00 0.00 100 955.2
20260904152906 73 176 2.0 9.0 0.00 0.00 0.00 100 955.1
20260904152704 73 140 2.0 9.0 0.00 0.00 0.00 100 955.1
20260904152501 73 0 1.0 5.0 0.00 0.00 0.00 100 955.1
20260904152257 74 208 2.0 11.0 0.00 0.00 0.00 100 955.1
20260904152054 73 187 3.0 11.0 0.00 0.00 0.00 100 955.1
20260904151851 73 187 2.0 8.0 0.00 0.00 0.00 100 955.2
20260904151750 73 172 4.0 13.0 0.00 0.00 0.00 100 955.2
20260904151648 73 176 4.0 13.0 0.00 0.00 0.00 100 955.1
20260904151444 73 171 4.0 13.0 0.00 0.00 0.00 100 955.1
20260904151241 73 193 2.0 6.0 0.00 0.00 0.00 100 955.1
20260904151142 73 196 2.0 6.0 0.00 0.00 0.00 100 955.1
20260904151039 73 206 2.0 8.0 0.00 0.00 0.00 100 955.1
20260904150836 73 218 2.0 9.0 0.00 0.00 0.00 100 955.1
20260904150633 73 211 3.0 9.0 0.00 0.00 0.00 100 955.2
20260904150532 73 216 3.0 9.0 0.00 0.00 0.00 100 955.3
20260904150430 73 239 3.0 10.0 0.00 0.00 0.00 100 955.4
20260904150226 73 263 4.0 11.0 0.00 0.00 0.00 100 955.4
20260904150023 73 256 3.0 11.0 0.00 0.00 0.00 100 955.4
20260904145923 73 236 3.0 11.0 0.00 0.00 0.00 100 955.5
20260904145820 74 0 2.0 7.0 0.00 0.00 0.00 100 955.5
20260904145617 74 232 2.0 7.0 0.00 0.00 0.00 100 955.4
20260904145414 74 228 2.0 10.0 0.00 0.00 0.00 100 955.4
20260904145321 74 194 2.0 10.0 0.00 0.00 0.00 100 955.4
20260904145008 73 187 2.0 7.0 0.00 0.00 0.00 100 955.5
20260904144804 74 217 2.0 9.0 0.00 0.00 0.00 100 955.4
20260904144704 74 218 2.0 12.0 0.00 0.00 0.00 100 955.5
20260904144601 73 217 3.0 12.0 0.00 0.00 0.00 100 955.4
20260904144358 74 218 2.0 12.0 0.00 0.00 0.00 100 955.5
20260904144155 74 205 2.0 8.0 0.00 0.00 0.00 100 955.5
20260904144054 74 202 2.0 8.0 0.00 0.00 0.00 100 955.5
20260904143952 74 204 2.0 8.0 0.00 0.00 0.00 100 955.5
20260904143749 74 266 4.0 14.0 0.00 0.00 0.00 100 955.6
20260904143546 74 283 5.0 14.0 0.00 0.00 0.00 100 955.7
20260904143446 74 282 4.0 14.0 0.00 0.00 0.00 100 955.5
20260904143343 74 268 3.0 10.0 0.00 0.00 0.00 100 955.7
20260904143141 75 218 2.0 6.0 0.00 0.00 0.00 100 955.8
20260904142937 75 176 3.0 9.0 0.00 0.00 0.00 100 955.8
20260904142836 75 170 3.0 9.0 0.00 0.00 0.00 100 955.7
20260904142734 74 181 3.0 9.0 0.00 0.00 0.00 100 955.8
20260904142531 74 176 3.0 8.0 0.00 0.00 0.00 100 955.7
20260904142328 75 168 2.0 8.0 0.00 0.00 0.00 100 955.7
20260904142227 75 177 2.0 8.0 0.00 0.00 0.00 100 955.8
20260904142125 75 174 2.0 8.0 0.00 0.00 0.00 100 955.7
20260904141922 75 209 3.0 11.0 0.00 0.00 0.00 100 955.8
20260904141718 74 216 3.0 11.0 0.00 0.00 0.00 100 955.8
20260904141618 74 222 3.0 11.0 0.00 0.00 0.00 100 955.7
20260904141515 74 210 3.0 9.0 0.00 0.00 0.00 100 955.8
20260904141312 74 205 3.0 11.0 0.00 0.00 0.00 100 955.7
20260904141109 74 213 2.0 11.0 0.00 0.00 0.00 100 955.6
20260904141008 74 212 3.0 11.0 0.00 0.00 0.00 100 955.8
20260904140907 74 214 2.0 9.0 0.00 0.00 0.00 100 955.8
20260904140704 74 214 2.0 9.0 0.00 0.00 0.00 100 955.9
20260904140500 74 220 2.0 7.0 0.00 0.00 0.00 100 955.9
20260904140359 74 207 2.0 10.0 0.00 0.00 0.00 100 955.9
20260904140257 74 209 2.0 10.0 0.00 0.00 0.00 100 956.0
20260904140054 73 214 2.0 10.0 0.00 0.00 0.00 100 956.0
20260904135851 73 236 2.0 8.0 0.00 0.00 0.00 100 956.0
20260904135749 74 235 2.0 7.0 0.00 0.00 0.00 100 956.1
20260904135647 74 235 2.0 7.0 0.00 0.00 0.00 100 956.0
20260904135444 74 225 2.0 7.0 0.00 0.00 0.00 100 956.1
20260904135241 73 187 2.0 7.0 0.00 0.00 0.00 100 956.0
20260904135141 73 186 3.0 7.0 0.00 0.00 0.00 100 956.1
20260904135038 73 183 3.0 10.0 0.00 0.00 0.00 100 956.1
20260904134835 73 217 3.0 10.0 0.00 0.00 0.00 100 956.0
20260904134632 73 255 2.0 9.0 0.00 0.00 0.00 100 956.0
20260904134531 73 246 2.0 8.0 0.00 0.00 0.00 100 956.1
20260904134429 73 222 2.0 7.0 0.00 0.00 0.00 100 956.1
20260904134225 73 246 2.0 8.0 0.00 0.00 0.00 100 956.2
20260904134023 73 226 2.0 10.0 0.00 0.00 0.00 100 956.3
20260904133922 73 214 2.0 10.0 0.00 0.00 0.00 100 956.3
20260904133819 73 214 2.0 10.0 0.00 0.00 0.00 100 956.3
20260904133616 73 230 2.0 9.0 0.00 0.00 0.00 100 956.3
20260904133413 73 233 2.0 7.0 0.00 0.00 0.00 100 956.3
20260904133313 73 227 2.0 7.0 0.00 0.00 0.00 100 956.3
20260904133211 73 225 2.0 7.0 0.00 0.00 0.00 100 956.3
20260904133008 73 228 2.0 9.0 0.00 0.00 0.00 100 956.4
20260904132805 73 239 2.0 9.0 0.00 0.00 0.00 100 956.5
20260904132704 73 233 2.0 9.0 0.00 0.00 0.00 100 956.5
20260904132601 73 243 2.0 8.0 0.00 0.00 0.00 100 956.5
20260904132359 73 211 2.0 11.0 0.00 0.00 0.00 100 956.5
20260904132156 73 214 3.0 13.0 0.00 0.00 0.00 100 956.3
20260904132055 73 235 3.0 13.0 0.00 0.00 0.00 100 956.5
20260904131953 73 238 3.0 13.0 0.00 0.00 0.00 100 956.4
20260904131751 73 252 2.0 13.0 0.00 0.00 0.00 100 956.5
20260904131548 73 234 3.0 13.0 0.00 0.00 0.00 100 956.6
20260904131447 73 213 2.0 13.0 0.00 0.00 0.00 100 956.6
20260904131344 74 217 2.0 10.0 0.00 0.00 0.00 100 956.5
20260904131141 74 217 2.0 7.0 0.00 0.00 0.00 100 956.5
20260904130939 74 236 2.0 10.0 0.00 0.00 0.00 100 956.5
20260904130838 74 220 2.0 10.0 0.00 0.00 0.00 100 956.5
20260904130735 74 228 2.0 9.0 0.00 0.00 0.00 100 956.5
20260904130533 75 218 2.0 10.0 0.00 0.00 0.00 100 956.6
20260904130320 74 232 3.0 18.0 0.00 0.00 0.00 100 956.6
20260904130219 74 232 3.0 18.0 0.00 0.00 0.00 100 956.6
20260904130117 74 240 4.0 18.0 0.00 0.00 0.00 100 956.6
20260904125914 74 238 3.0 18.0 0.00 0.00 0.00 100 956.4
20260904125710 74 233 2.0 11.0 0.00 0.00 0.00 100 956.6
20260904125610 74 244 2.0 8.0 0.00 0.00 0.00 100 956.6
20260904125507 74 224 2.0 8.0 0.00 0.00 0.00 100 956.6
20260904125305 74 218 2.0 12.0 0.00 0.00 0.00 100 956.6
20260904125100 73 216 3.0 12.0 0.00 0.00 0.00 100 956.7
20260904125000 73 212 2.0 9.0 0.00 0.00 0.00 100 956.8
20260904124857 73 215 2.0 9.0 0.00 0.00 0.00 100 956.8
20260904124655 73 228 2.0 9.0 0.00 0.00 0.00 100 956.8
20260904124451 73 229 2.0 10.0 0.00 0.00 0.00 100 956.9
20260904124351 73 232 2.0 12.0 0.00 0.00 0.00 100 956.9
20260904124248 73 224 2.0 12.0 0.00 0.00 0.00 100 957.0
20260904124045 72 215 2.0 12.0 0.00 0.00 0.00 100 956.9
20260904123842 72 220 2.0 11.0 0.00 0.00 0.00 100 957.1
20260904123741 72 225 2.0 11.0 0.00 0.00 0.00 100 957.1
20260904123639 72 223 2.0 11.0 0.00 0.00 0.00 100 957.0
20260904123436 72 236 2.0 13.0 0.00 0.00 0.00 100 957.1
20260904123233 73 200 4.0 14.0 0.00 0.00 0.00 100 957.1
20260904123132 72 200 5.0 15.0 0.00 0.00 0.00 100 957.1
20260904123029 72 190 5.0 15.0 0.00 0.00 0.00 100 957.1
20260904122826 72 182 3.0 15.0 0.00 0.00 0.00 100 957.1
20260904122623 73 234 2.0 8.0 0.00 0.00 0.00 100 957.3
20260904122420 73 211 2.0 9.0 0.00 0.00 0.00 100 957.2
20260904122217 73 217 2.0 9.0 0.00 0.00 0.00 100 957.2
20260904122014 74 220 2.0 8.0 0.00 0.00 0.00 100 957.3
20260904121913 73 231 2.0 10.0 0.00 0.00 0.00 100 957.3
20260904121811 73 236 2.0 10.0 0.00 0.00 0.00 100 957.3
20260904121607 72 241 2.0 10.0 0.00 0.00 0.00 100 957.3
20260904121404 73 225 2.0 14.0 0.00 0.00 0.00 100 957.3
20260904121303 72 228 2.0 14.0 0.00 0.00 0.00 100 957.4
20260904121201 73 222 2.0 14.0 0.00 0.00 0.00 100 957.4
20260904120957 73 206 2.0 9.0 0.00 0.00 0.00 100 957.4
20260904120755 73 210 3.0 9.0 0.00 0.00 0.00 100 957.5
20260904120654 73 215 3.0 8.0 0.00 0.00 0.00 100 957.6
20260904120552 72 214 4.0 9.0 0.00 0.00 0.00 100 957.5
20260904120349 72 199 4.0 13.0 0.00 0.00 0.00 100 957.5
20260904120146 72 209 2.0 13.0 0.00 0.00 0.00 100 957.6
20260904120045 72 213 2.0 9.0 0.00 0.00 0.00 100 957.5
20260904115943 72 217 2.0 9.0 0.00 0.00 0.00 100 957.5
20260904115740 71 207 2.0 9.0 0.00 0.00 0.00 100 957.5
20260904115537 71 216 2.0 7.0 0.00 0.00 0.00 100 957.7
20260904115333 71 215 2.0 7.0 0.00 0.00 0.00 100 957.7
20260904114927 70 224 2.0 12.0 0.00 0.00 0.00 100 957.8
20260904114826 70 220 2.0 12.0 0.00 0.00 0.00 100 957.8
20260904114318 70 232 3.0 15.0 0.00 0.00 0.00 100 957.7
20260904114217 70 220 3.0 15.0 0.00 0.00 0.00 100 957.8
20260904114114 70 230 3.0 15.0 0.00 0.00 0.00 100 957.7
20260904113911 70 236 2.0 12.0 0.00 0.00 0.00 100 957.7
20260904113707 70 0 2.0 12.0 0.00 0.00 0.00 100 957.6
20260904113607 70 0 2.0 11.0 0.00 0.00 0.00 100 957.8
20260904113504 70 239 2.0 11.0 0.00 0.00 0.00 100 957.7
20260904113301 70 238 2.0 11.0 0.00 0.00 0.00 100 957.7
20260904113058 71 245 2.0 7.0 0.00 0.00 0.00 100 957.7
20260904112957 71 248 2.0 8.0 0.00 0.00 0.00 100 957.8
20260904112855 71 233 2.0 14.0 0.00 0.00 0.00 100 957.8
20260904112652 71 247 6.0 26.0 0.00 0.00 0.00 100 957.8
20260904112449 70 251 6.0 26.0 0.00 0.00 0.00 100 957.7
20260904112246 71 234 3.0 14.0 0.00 0.00 0.00 100 957.7
20260904112043 71 220 3.0 15.0 0.00 0.00 0.00 100 957.7
20260904111839 71 217 3.0 11.0 0.00 0.00 0.00 100 957.8
20260904111739 71 215 2.0 10.0 0.00 0.00 0.00 100 957.8
20260904111635 71 212 2.0 10.0 0.00 0.00 0.00 100 957.9
20260904111432 71 218 2.0 9.0 0.00 0.00 0.00 100 957.8
20260904111229 71 223 2.0 9.0 0.00 0.00 0.00 100 958.0
20260904111128 71 236 3.0 18.0 0.00 0.00 0.00 100 957.9
20260904111026 71 230 3.0 18.0 0.00 0.00 0.00 100 957.9
20260904110823 71 235 3.0 18.0 0.00 0.00 0.00 100 957.8
20260904110620 71 221 2.0 11.0 0.00 0.00 0.00 100 958.0
20260904110519 71 220 2.0 11.0 0.00 0.00 0.00 100 957.9
20260904110417 71 215 2.0 11.0 0.00 0.00 0.00 100 958.0
20260904110213 71 231 2.0 9.0 0.00 0.00 0.00 100 957.9
20260904110010 71 230 2.0 8.0 0.00 0.00 0.00 100 958.0
20260904105807 71 180 3.0 14.0 0.00 0.00 0.00 100 958.2
20260904105604 71 182 4.0 14.0 0.00 0.00 0.00 100 958.0
20260904105401 72 224 3.0 12.0 0.00 0.00 0.00 100 958.2
20260904105301 72 233 3.0 12.0 0.00 0.00 0.00 100 958.2
20260904105158 73 236 3.0 12.0 0.00 0.00 0.00 100 958.1
20260904104955 73 225 2.0 9.0 0.00 0.00 0.00 100 958.2
20260904104752 73 225 2.0 9.0 0.00 0.00 0.00 100 958.2
20260904104652 73 218 2.0 9.0 0.00 0.00 0.00 100 958.2
20260904104549 73 222 2.0 9.0 0.00 0.00 0.00 100 958.2
20260904104346 72 219 2.0 9.0 0.00 0.00 0.00 100 958.2
20260904104143 72 222 2.0 8.0 0.00 0.00 0.00 100 958.3
20260904104042 72 227 2.0 9.0 0.00 0.00 0.00 100 958.2
20260904103940 72 224 2.0 11.0 0.00 0.00 0.00 100 958.2
20260904103736 72 220 2.0 11.0 0.00 0.00 0.00 100 958.3
20260904103534 72 238 2.0 7.0 0.00 0.00 0.00 100 958.3
20260904103331 72 243 2.0 11.0 0.00 0.00 0.00 100 958.4
20260904103128 73 211 2.0 11.0 0.00 0.00 0.00 100 958.5
20260904102925 72 258 2.0 9.0 0.00 0.00 0.00 100 958.4
20260904102824 71 270 3.0 8.0 0.00 0.00 0.00 100 958.6
20260904102722 70 265 3.0 8.0 0.00 0.00 0.00 100 958.5
20260904102506 71 242 3.0 9.0 0.00 0.00 0.00 100 958.6
20260904102306 70 246 4.0 13.0 0.00 0.00 0.00 100 958.7
20260904102202 70 260 6.0 17.0 0.00 0.00 0.00 100 958.7
20260904102059 70 276 7.0 17.0 0.00 0.00 0.00 100 958.6
20260904101856 70 292 6.0 17.0 0.00 0.00 0.00 100 958.5
20260904101653 72 277 2.0 8.0 0.00 0.00 0.00 100 958.7
20260904101552 72 251 2.0 8.0 0.00 0.00 0.00 100 958.6
20260904101449 72 236 2.0 8.0 0.00 0.00 0.00 100 958.6
20260904101246 71 257 3.0 10.0 0.00 0.00 0.00 100 958.7
20260904101044 70 250 4.0 10.0 0.00 0.00 0.00 100 958.7
20260904100943 70 240 3.0 10.0 0.00 0.00 0.00 100 958.7
20260904100840 70 211 3.0 10.0 0.00 0.00 0.00 100 958.7
20260904100637 71 240 2.0 10.0 0.00 0.00 0.00 100 958.5
20260904100434 71 225 2.0 10.0 0.00 0.00 0.00 100 958.5
20260904100335 71 210 2.0 10.0 0.00 0.00 0.00 100 958.7
20260904100230 71 213 2.0 10.0 0.00 0.00 0.00 100 958.6
20260904100027 72 213 2.0 9.0 0.00 0.00 0.00 100 958.6